Weather in Akzharskoye

Russia / Orenburg Oblast     51°05′53″N   59°24′33″E
temp.,
°C
wind,
m/s
gust,
m/s
humid.,
%
clouds,
%
prec.,
mm/h
press.,
hPa
HPBL,
m
1 march, mon
mon123:00−10wsw6119496 1.5 1009319
02:00−13w61095100 0.1 1011269
05:00−14w5996100 0.3 1013261
08:00−15w4796100 0.3 1015230
11:00−14w4595100 0.5 1016225
14:00−12w4593100 0.1 1017297
17:00−12w4694100 0.3 1018364
20:00−14wsw4796100 0.1 1019188
2 march, tue
tue223:00−16w479793 0.3 1020178
02:00−16wsw489795 0.1 1019243
05:00−17w5109798 0.2 1019279
08:00−19w5109899 0.1 1020227
11:00−19w699590 0.1 1020321
14:00−16wsw6109298 0.0 1019421
17:00−15wsw6109091 0.0 1018407
20:00−14sw61291100 0.0 1017345
3 march, wed
wed323:00−11sw81493100 0.1 1015492
02:00−8sw91593100 0.6 1012629
05:00−6sw91693100 1.7 1010710
08:00−4sw101692100 0.9 1008835
11:00−3sw101594100 1.6 1008914
14:00−2sw101494100 1.1 1007950
17:00−1sw91496100 2.2 1006945
20:00−1sw81396100 0.9 1005699
4 march, thu
thu423:00−2sw71197100 1.9 1004564
02:00−3sw6119598 0.6 1003395
05:00−4wsw6109698 1.3 1004368
08:00−5wnw5995100 0.7 1005298
11:00−9wnw6109498 0.7 1008338
14:00−6w8118898 0.0 1010695
17:00−8w7128999 0.0 1012602
20:00−12wsw5119485 0.0 1015233
5 march, fri
fri523:00−12sw6139457 0.0 1017283
02:00−10sw6149297 0.1 1016398
05:00−7sw9178898 0.1 1015683
08:00−5sw101987100 0.0 1014847
11:00−3sw121985100 0.1 1014982
14:00−2sw121981100 0.0 10141084
17:00−2sw111882100 0.0 10151055
20:00−2wsw101689100 0.1 1016929